Starlink 31321

operational
NORAD ID: 58887 Int'l Des: 2024-020 Owner: SPXS Country: US Constellation: starlink
LEOCIRCULAR

Starlink 31321について

説明を読み込み中...

リアルタイム位置

3D地球を読み込み中...

次回通過

高度履歴

Altitude vs Time

uPlot chart will show altitude changes over time

軌道要素

1 58887U 24020M 25259.12089696 .00001430 00000-0 60413-4 0 9994
2 58887 53.1599 53.2873 0001083 74.7153 285.3968 15.30198560 92502
Epoch: Sep 16, 2025 • Age: 16 hours

現在のステータス

高度 484.3 km
速度 7.62 km/s
衛星直下点 -29.04°S, 113.67°E
打ち上げ日 Jan 29, 2024
運用期間 1.6 years
タイプ internet

技術仕様

分類 Payload
質量 730.00 kg
乾燥質量 700.00 kg
総質量 730.00 kg
長さ 0.30 m
直径 4.10 m
スパン 29.00 m
形状 Box + pan
製造者 SPXS
バスタイプ Starlink V2M
フェーズステータス In Orbit
所有者/国 SPXS/US

大規模コンステレーション

Loading constellations...